Change the Weather History Date:

Thursday, January 23, 2014

  Actual Average Record
Temperature  
Mean Temperature 62 °F -  
Max Temperature 66 °F 68 °F 75 °F (1999)
Min Temperature 57 °F 60 °F 55 °F (2012)
Degree Days  
Heating Degree Days 4    
Growing Degree Days 12 (Base 50)    
Moisture  
Dew Point 46 °F    
Average Humidity 52    
Maximum Humidity 77    
Minimum Humidity 38    
Precipitation  
Precipitation 0.02 in - - ()
Sea Level Pressure  
Sea Level Pressure 30.20 in    
Wind  
Wind Speed 8 mph ()    
Max Wind Speed 14 mph    
Max Gust Speed 22 mph    
Visibility 9.6 miles    
Events Rain    
Averages and records for this station are not official NWS values.
T = Trace of Precipitation, MM = Missing Value Source: Averaged Metar Reports

Daily Weather History Graph

Daily Weather History Graph

Search for Another Location

Airport or City:

Trip Planner

Search our weather history database for the weather conditions in past years. The results will help you decide how hot, cold, wet, or windy it might be!

Date:

Astronomy

Jan. 23, 2014 Rise Set
Actual Time 7:24 AM JST 6:17 PM JST
Civil Twilight 7:00 AM JST 6:41 PM JST
Nautical Twilight 6:32 AM JST 7:09 PM JST
Astronomical Twilight 6:05 AM JST 7:36 PM JST
Moon No Moon Rise 11:23 AM JST (1/23)
Length of Visible Light 11h 41m
Length of Day
10h 52m
Waning Gibbous, 61% of the Moon is Illuminated
Jan 23
Waning Gibbous
Jan 24
Last Quarter
Jan 31
New
Feb 7
First Quarter
Feb 15
Full

Hourly Weather History & Observations

Time (JST) Temp. Dew Point Humidity Pressure Visibility Wind Dir Wind Speed Gust Speed Precip Events Conditions
12:00 AM 58 °F 47 °F 57% 30.26 in - North 11.5 mph - -  
1:00 AM 58 °F 43 °F 46% 30.25 in - NNE 10.4 mph - -  
2:00 AM 59 °F 43 °F 44% 30.25 in - NNE 9.2 mph - -  
3:00 AM 59 °F 44 °F 46% 30.23 in 12 mi NNE 8.1 mph - -   Partly Cloudy
4:00 AM 59 °F 42 °F 42% 30.22 in - NNE 6.9 mph - -  
5:00 AM 58 °F 42 °F 44% 30.21 in - NNE 9.2 mph - -  
6:00 AM 59 °F 46 °F 51% 30.22 in 12 mi NNE 8.1 mph - - Rain Light Rain Showers
6:30 AM 55.4 °F 48.2 °F 77% 30.18 in 6.2 mi NNE 5.8 mph - N/A   Scattered Clouds
7:00 AM 57 °F 49 °F 67% 30.24 in - North 3.5 mph - -  
7:00 AM 55.4 °F 44.6 °F 67% 30.21 in 6.2 mi NNE 5.8 mph - N/A   Scattered Clouds
8:00 AM 59 °F 46 °F 52% 30.24 in - NNE 10.4 mph - -  
8:00 AM 57.2 °F 46.4 °F 67% 30.21 in 6.2 mi NNE 10.4 mph - N/A   Scattered Clouds
9:00 AM 62 °F 49 °F 52% 30.25 in 19 mi ENE 11.5 mph - - Rain Light Rain Showers
9:00 AM 62.6 °F 48.2 °F 59% 30.21 in 6.2 mi NE 13.8 mph - N/A   Scattered Clouds
10:00 AM 60 °F 49 °F 58% 30.26 in - NE 10.4 mph - -  
10:00 AM 62.6 °F 48.2 °F 59% 30.21 in 6.2 mi NE 9.2 mph - N/A   Scattered Clouds
11:00 AM 64 °F 46 °F 40% 30.25 in - NE 11.5 mph - -  
11:00 AM 62.6 °F 46.4 °F 55% 30.21 in 6.2 mi NE 10.4 mph - N/A   Scattered Clouds
12:00 PM 64 °F 47 °F 43% 30.23 in 19 mi NNE 11.5 mph - - Rain Light Rain Showers
12:00 PM 64.4 °F 46.4 °F 52% 30.21 in 6.2 mi NNE 10.4 mph - N/A   Mostly Cloudy
1:00 PM 66 °F 47 °F 38% 30.19 in - NNE 10.4 mph - -  
1:00 PM 66.2 °F 46.4 °F 49% 30.15 in 6.2 mi NNE 10.4 mph - N/A   Scattered Clouds
2:00 PM 61 °F 52 °F 64% 30.18 in - NNE 10.4 mph - -  
2:00 PM 60.8 °F 51.8 °F 72% 30.15 in 6.2 mi NE 10.4 mph 21.9 mph N/A Rain Light Rain Showers
3:00 PM 63 °F 48 °F 47% 30.16 in 19 mi NE 9.2 mph - - Rain Light Rain Showers
3:00 PM 64.4 °F 46.4 °F 52% 30.12 in 6.2 mi ENE 11.5 mph - N/A   Scattered Clouds
4:00 PM 66.2 °F 48.2 °F 52% 30.12 in 6.2 mi ENE 11.5 mph - N/A   Partly Cloudy
5:00 PM 63 °F 49 °F 50% 30.17 in - ENE 6.9 mph - -  
5:00 PM 62.6 °F 46.4 °F 55% 30.12 in 6.2 mi ENE 9.2 mph - N/A   Partly Cloudy
6:00 PM 63 °F 45 °F 41% 30.18 in 19 mi NE 10.4 mph - - Rain Light Rain Showers
6:00 PM 62.6 °F 46.4 °F 55% 30.15 in 6.2 mi NE 6.9 mph - N/A Rain Light Rain Showers
7:00 PM 62 °F 45 °F 42% 30.19 in - NE 6.9 mph - -  
7:00 PM 59.0 °F 44.6 °F 59% 30.15 in 6.2 mi NE 4.6 mph - N/A   Partly Cloudy
8:00 PM 62 °F 46 °F 45% 30.20 in - ENE 9.2 mph - -  
8:00 PM 60.8 °F 44.6 °F 55% 30.18 in 6.2 mi ENE 9.2 mph - N/A   Partly Cloudy
9:00 PM 62 °F 45 °F 42% 30.21 in 19 mi ENE 5.8 mph - -   Partly Cloudy
10:00 PM 62 °F 44 °F 41% 30.22 in - East 5.8 mph - -  
11:00 PM 61 °F 46 °F 46% 30.21 in - East 4.6 mph - -